User: anonymous   Login
Location: Grandview
(34.8900°N, 117.1058°W)
Time: 03:49:23
(UTC-07:00)
Language:

Envisat - Orbit

View from above orbital plane
View from above orbital plane
View from above satellite
View from above satellite

Ground track
Ground track

The orbit data is extracted from the following two-line orbital elements,

1 27386U 02009A   18197.10602441 -.00000020  00000-0  70122-5 0  9991
2 27386  98.1822 229.8011 0001365  95.9371 282.7554 14.37925771857683
Epoch (UTC): 16 July 2018 02:32:40
Eccentricity: 0.0001365
inclination: 98.1822°
perigee height: 764 km
apogee height: 766 km
right ascension of ascending node: 229.8011°
argument of perigee: 95.9371°
revolutions per day: 14.37925771
mean anomaly at epoch: 282.7554°
orbit number at epoch: 85768

The dashed part of the orbit path shows where the satellite is in the earth's shadow,  

DLR